Content
SEND FEEDBACK

Daily
Averages
Monthly
Summary
United States of America

RAPID CITY, SOUTH DAKOTA


Home > North America > United States > South Dakota
Elevation: 3162 feet     Latitude: 44 03N     Longitude: 103 04W

WEATHER
 
SELECT A DAY
Number of Records: 200,400;   Date Range: 1/1/95 - 8/28/14
 
SHARE

PRINT THIS DATA

[ ← Previous Day ]
WEATHER ALMANAC - JANUARY 12, 2013
[ Next Day → ]
[ °C ]   °F
Weather ElementAverageHighLow
Temperature8.5 °F10.9 °F (12:52 pm)6.1 °F (1:52 am)
Dewpoint0.7 °F3.9 °F (12:52 pm)-2.2 °F (2:38 am)
Humidity70.9 %80 % (4:52 am)62 % (10:52 pm)
Barometer30.09 in30.29 in (11:52 pm)29.84 in (2:19 am)
Wind Speed23.6 mph35.7 mph (3:52 am)
Wind Gust44.9 mph (3:52 am)
Weather ElementAverage
Visibility4.6 mi
Wind DirectionNNW (334.2 °)

Weather ElementTotal
Precipitation0.04 in
Heating Degree Days56.5 (Base 65)
Averaged from 38 records on January 12, 2013
WEATHER CONDITIONS BREAKOUT
WIND DIRECTION BREAKOUT
WEATHER BY HOUR - JANUARY 12, 2013
[ °C ]   °F
Local TimeTemperatureDewpointHumidityBarometerVisibilityWind DirectionWind SpeedGust SpeedPrecipitationEventsConditions
1:52 AM6.1 °F-0.9 °F73 %30.01 in7.0 miNNW (330°)25.3 mph33.4 mph0.00 inOvercast
2:19 AM6.8 °F-0.4 °F72 %29.84 in2.0 miNNW (330°)28.8 mph39.1 mph0.00 inSnowLight Snow
2:26 AM6.8 °F-0.4 °F72 %29.84 in1.2 miNNW (330°)27.6 mph38.0 mph0.00 inSnowLight Snow
2:38 AM6.8 °F-2.2 °F67 %29.84 in1.8 miNNW (330°)32.2 mph39.1 mph0.00 inOvercast
2:52 AM6.1 °F-0.9 °F73 %30.04 in1.5 miNNW (330°)33.4 mph42.6 mph0.00 inOvercast
3:07 AM6.8 °F-0.4 °F72 %29.85 in1.0 miNNW (330°)34.5 mph41.4 mph0.00 inOvercast
3:52 AM7.0 °F-0.9 °F70 %30.04 in1.5 miNNW (330°)35.7 mph44.9 mph0.00 inOvercast
4:52 AM7.0 °F1.9 °F80 %30.06 in1.2 miNNW (330°)25.3 mph32.2 mph0.01 inSnowLight Snow
5:26 AM8.6 °F1.4 °F73 %29.89 in2.5 miNNW (330°)28.8 mph35.7 mph0.01 inSnowLight Snow
5:45 AM6.8 °F1.4 °F79 %29.91 in2.0 miNW (320°)28.8 mph36.8 mph0.01 inSnowLight Snow
5:52 AM8.1 °F1.0 °F73 %30.11 in2.0 miNW (320°)31.1 mph39.1 mph0.01 inSnowLight Snow
6:01 AM6.8 °F1.4 °F79 %29.92 in1.5 miNW (320°)32.2 mph42.6 mph0.00 inOvercast
6:43 AM6.8 °F-0.4 °F72 %29.95 in2.5 miNW (320°)28.8 mph38.0 mph0.00 inSnowLight Snow
6:52 AM6.8 °F-0.4 °F72 %29.96 in4.0 miNNW (330°)28.8 mph38.0 mphOvercast
7:52 AM7.0 °F0.0 °F73 %30.18 in4.0 miNNW (330°)27.6 mph38.0 mph0.00 inSnowBlowing Snow
8:41 AM8.6 °F-0.4 °F67 %30.00 in2.0 miNNW (330°)28.8 mph41.4 mph0.00 inOvercast
8:52 AM8.1 °F0.0 °F70 %30.20 in2.5 miNNW (330°)29.9 mph38.0 mph0.00 inOvercast
9:01 AM8.6 °F-0.4 °F67 %30.01 in3.0 miNNW (330°)28.8 mph36.8 mph0.00 inOvercast
9:52 AM8.6 °F-0.4 °F67 %30.05 in10.0 miNNW (330°)23.0 mph31.1 mphOvercast
10:52 AM10.0 °F1.0 °F67 %30.26 in5.0 miNNW (330°)25.3 mph31.1 mph0.00 inSnowLight Snow
11:18 AM10.4 °F1.4 °F67 %30.06 in2.5 miNNW (330°)27.6 mph33.4 mph0.00 inSnowLight Snow
11:50 AM10.4 °F3.2 °F73 %30.05 in1.8 miNNW (330°)23.0 mph29.9 mph0.00 inSnowLight Snow
11:52 AM10.0 °F3.0 °F73 %30.25 in1.8 miNNW (330°)23.0 mph0.00 inSnowLight Snow
12:21 PM10.4 °F3.2 °F73 %30.04 in2.0 miNNW (340°)21.9 mph0.00 inSnowLight Snow
12:36 PM10.4 °F3.2 °F73 %30.04 in2.5 miNNW (340°)23.0 mph0.00 inSnowLight Snow
12:52 PM10.9 °F3.9 °F73 %30.25 in2.5 miNNW (340°)21.9 mph0.00 inSnowLight Snow
1:13 PM10.4 °F3.2 °F73 %30.04 in3.0 miNNW (340°)19.6 mph0.00 inSnowLight Snow
1:52 PM10.0 °F1.9 °F70 %30.26 in7.0 miNorth (350°)20.7 mph32.2 mph0.00 inOvercast
2:52 PM10.0 °F3.0 °F73 %30.27 in5.0 miNorth (350°)19.6 mph0.00 inHaze
3:52 PM10.0 °F1.9 °F70 %30.25 in10.0 miNorth (350°)19.6 mphOvercast
4:52 PM9.0 °F1.0 °F70 %30.27 in10.0 miNorth (360°)13.8 mphOvercast
5:52 PM9.0 °F1.0 °F70 %30.26 in10.0 miNorth (350°)13.8 mphOvercast
6:52 PM8.1 °F0.0 °F70 %30.27 in10.0 miNNW (340°)10.4 mphOvercast
7:52 PM8.1 °F0.0 °F70 %30.28 in10.0 miNNW (340°)9.2 mphOvercast
8:52 PM9.0 °F0.0 °F67 %30.27 in10.0 miNNW (340°)11.5 mphOvercast
9:52 PM9.0 °F-0.9 °F64 %30.27 in10.0 miNNW (330°)11.5 mphOvercast
10:52 PM10.4 °F-0.4 °F62 %30.09 in10.0 miNNW (340°)12.7 mphOvercast
11:52 PM9.0 °F-0.9 °F64 %30.29 in10.0 miNNW (340°)9.2 mphOvercast
Hourly data recorded from KRAP, located miles away from Rapid City, South Dakota







STORIES FROM OUR PARTNERS